WI3X Weather Reports


Display with metric or nautical units.
time (UTC)temp
F
wind
direction
speed
MPH
gust
MPH
rain 1hr
in
rain 24hr
in
rain mn
in
humidity
%
barometer
mb
20260504141003 60 204 8.0 14.0 0.00 0.00 0.00 47 1012.9
20260504082003 43 234 2.0 4.0 0.00 0.00 0.00 69 1013.8
20260504081004 43 226 2.0 7.0 0.00 0.00 0.00 68 1013.7
20260504050003 46 227 3.0 5.0 0.00 0.00 0.00 62 1013.7
20260504045003 46 228 3.0 7.0 0.00 0.00 0.00 62 1013.8
20260504044003 47 230 2.0 4.0 0.00 0.00 0.00 61 1013.9
20260504043003 48 226 3.0 5.0 0.00 0.00 0.00 60 1013.7
20260504042004 48 234 5.0 8.0 0.00 0.00 0.00 56 1013.7
20260504041004 48 234 5.0 9.0 0.00 0.00 0.00 59 1013.7
20260504040025 48 223 4.0 8.0 0.00 0.00 0.00 58 1013.6
20260504035003 47 225 4.0 8.0 0.00 0.00 0.00 60 1013.5
20260504034003 48 227 4.0 8.0 0.00 0.00 0.00 62 1013.4
20260504033024 48 233 5.0 9.0 0.00 0.00 0.00 58 1013.4
20260504032003 48 224 4.0 7.0 0.00 0.00 0.00 57 1013.4
20260504031003 48 223 3.0 5.0 0.00 0.00 0.00 58 1013.3
20260504030003 48 224 3.0 5.0 0.00 0.00 0.00 57 1013.2
20260504025003 48 224 3.0 5.0 0.00 0.00 0.00 57 1013.2
20260504024024 49 221 3.0 6.0 0.00 0.00 0.00 57 1013.2
20260504023024 49 218 3.0 4.0 0.00 0.00 0.00 56 1013.3
20260504022003 49 222 3.0 7.0 0.00 0.00 0.00 57 1013.3
20260504021003 49 221 3.0 6.0 0.00 0.00 0.00 57 1013.3
20260504020004 49 217 4.0 5.0 0.00 0.00 0.00 56 1013.4
20260504015003 50 219 3.0 5.0 0.00 0.00 0.00 55 1013.3
20260504014003 50 230 3.0 5.0 0.00 0.00 0.00 53 1013.2
20260504013003 51 230 3.0 4.0 0.00 0.00 0.00 52 1013.1
20260504012003 51 230 3.0 4.0 0.00 0.00 0.00 51 1013.0
20260504011003 52 231 3.0 4.0 0.00 0.00 0.00 50 1013.0
20260504010003 53 231 3.0 5.0 0.00 0.00 0.00 50 1013.0
20260504005004 54 234 3.0 7.0 0.00 0.00 0.00 48 1013.0
20260504004003 55 242 3.0 6.0 0.00 0.00 0.00 43 1012.9
20260504003003 56 247 4.0 7.0 0.00 0.00 0.00 42 1012.8
20260504002024 57 248 4.0 8.0 0.00 0.00 0.00 40 1012.7
20260504001024 57 249 4.0 10.0 0.00 0.00 0.00 37 1012.6
20260504000003 58 255 4.0 9.0 0.00 0.00 0.00 37 1012.4
20260503235003 58 266 3.0 9.0 0.00 0.00 0.00 36 1012.3
20260503234003 59 271 4.0 10.0 0.00 0.00 0.00 35 1012.2
20260503233003 59 264 5.0 13.0 0.00 0.00 0.00 34 1012.2
20260503232004 60 275 6.0 14.0 0.00 0.00 0.00 34 1012.2
20260503231003 60 268 6.0 17.0 0.00 0.00 0.00 33 1012.1
20260503230003 60 262 5.0 14.0 0.00 0.00 0.00 33 1012.1
20260503225004 61 273 7.0 16.0 0.00 0.00 0.00 33 1012.1
20260503224025 61 275 7.0 17.0 0.00 0.00 0.00 33 1012.1
20260503223004 61 275 7.0 19.0 0.00 0.00 0.00 34 1012.1
20260503222004 61 282 8.0 19.0 0.00 0.00 0.00 33 1012.0
20260503221004 61 272 9.0 18.0 0.00 0.00 0.00 32 1012.1
20260503220004 62 272 9.0 19.0 0.00 0.00 0.00 31 1012.2
20260503215004 62 263 9.0 21.0 0.00 0.00 0.00 33 1012.1
20260503214004 62 256 8.0 18.0 0.00 0.00 0.00 32 1012.0
20260503213004 63 263 10.0 23.0 0.00 0.00 0.00 33 1012.0
20260503212025 64 285 6.0 23.0 0.00 0.00 0.00 31 1011.9
20260503211004 64 282 11.0 20.0 0.00 0.00 0.00 33 1012.0
20260503210005 64 276 8.0 16.0 0.00 0.00 0.00 30 1012.0
20260503205004 64 263 7.0 19.0 0.00 0.00 0.00 34 1011.9
20260503204025 63 263 6.0 18.0 0.00 0.00 0.00 33 1012.1
20260503203026 62 272 8.0 19.0 0.00 0.00 0.00 33 1012.0
20260503202004 62 280 8.0 20.0 0.00 0.00 0.00 32 1012.0
20260503201025 62 277 7.0 21.0 0.00 0.00 0.00 31 1012.2
20260503200004 63 286 8.0 19.0 0.00 0.00 0.00 34 1012.3
20260503195004 64 283 8.0 18.0 0.00 0.00 0.00 29 1012.4
20260503194004 63 291 5.0 19.0 0.00 0.00 0.00 42 1012.5
20260503193004 62 269 6.0 15.0 0.00 0.00 0.00 33 1012.7
20260503192004 63 283 6.0 14.0 0.00 0.00 0.00 36 1012.9
20260503191006 63 284 8.0 17.0 0.00 0.00 0.00 33 1012.9
20260503190004 63 286 7.0 20.0 0.00 0.00 0.00 33 1013.0
20260503185004 62 274 8.0 18.0 0.00 0.00 0.00 32 1013.1
20260503184004 62 260 9.0 21.0 0.00 0.00 0.00 31 1013.3
20260503183004 62 292 7.0 14.0 0.00 0.00 0.00 35 1013.4
20260503182025 61 271 10.0 23.0 0.00 0.00 0.00 34 1013.4
20260503181004 60 274 6.0 13.0 0.00 0.00 0.00 36 1013.4
20260503180004 59 262 5.0 23.0 0.00 0.00 0.00 36 1013.6
20260503175025 60 283 8.0 20.0 0.00 0.00 0.00 33 1013.6
20260503174004 61 285 6.0 18.0 0.00 0.00 0.00 39 1013.7
20260503173004 60 301 9.0 24.0 0.00 0.00 0.00 36 1013.8
20260503172005 60 288 8.0 24.0 0.00 0.00 0.00 35 1013.7
20260503171004 59 274 6.0 18.0 0.00 0.00 0.00 40 1014.0